Tracking 30994 objects as of 8-Jul-2025
HD Live streaming from Space Station
objects crossing your sky now

STARLINK-32803

Track STARLINK-32803 now!
10-day predictions
STARLINK-32803 is classified as:


NORAD ID: 63024
Int'l Code: 2025-032V
Perigee: 488.7 km
Apogee: 491.6 km
Inclination: 43.0 °
Period: 94.3 minutes
Semi major axis: 6861 km
RCS: Unknown
Launch date: February 15, 2025
Source: United States (US)
Launch site: AIR FORCE EASTERN TEST RANGE (AFETR)
Your satellite tracking list
Your tracking list is empty




NASA's NSSDC Master Catalog

Two Line Element Set (TLE):
1 63024U 25032V   25187.64793940  .00015186  00000-0  55990-3 0  9994
2 63024  43.0028 285.3413 0002131 274.6472  85.4137 15.27599165 22832
Source of the keplerian elements: AFSPC